Tracking 18850 objects as of 22-Nov-2017
HD Live streaming from Space Station
objects crossing your sky now

FENGYUN 1C DEB

Track FENGYUN 1C DEB now!
10-day predictions


NORAD ID: 33648
Int'l Code: 1999-025DEH
Perigee: 814.5 km
Apogee: 914.5 km
Inclination: 98.9 °
Period: 102.1 minutes
Semi major axis: 7235 km
RCS: 0.0146 m2 (small)
Launch date: May 10, 1999
Source: People's Republic of China (PRC)
Launch site: Taiyaun Space Center, China (TSC)

Note: This is SATELLITE DEBRIS
aabbcc
Your satellite tracking list
Your tracking list is empty




NASA's NSSDC Master Catalog

Two Line Element Set (TLE):
1 33648U 99025DEH 17324.30824814  .00000034  00000-0  43137-4 0  9995
2 33648  98.8894 350.3835 0069122 236.9512 122.5006 14.10579033514062
Source of the keplerian elements: AFSPC